Location: Ferchesar
(52.6477°N, 12.4298°E)
Time: 17:54:46
(UTC+01:00)

Tiros 1 despin weight - Visible Passes

Search period start: 03 December 2022 00:00
Search period end: 13 December 2022 00:00
Orbit: 590 x 637 km, 48.2° (Epoch: 03 December)

Date Brightness Start Highest point End Pass type
(mag) Time Alt. Az. Time Alt. Az. Time Alt. Az.
03 Dec ? 17:04:34 10° SW 17:08:39 31° SSE 17:12:37 11° E visible
03 Dec ? 18:45:07 10° WSW 18:49:34 49° S 18:49:34 49° S visible
03 Dec ? 20:26:21 10° W 20:26:32 11° W 20:26:32 11° W visible
04 Dec ? 17:19:10 10° SW 17:23:31 39° SSE 17:27:02 15° E visible
04 Dec ? 19:00:04 10° WSW 19:04:00 46° SSW 19:04:00 46° SSW visible
05 Dec ? 17:33:57 10° WSW 17:38:26 46° S 17:41:28 19° ESE visible
05 Dec ? 19:15:04 10° W 19:18:26 37° SW 19:18:26 37° SW visible
06 Dec ? 17:48:51 10° WSW 17:53:22 50° S 17:55:56 24° ESE visible
06 Dec ? 19:30:07 10° W 19:32:54 29° WSW 19:32:54 29° WSW visible
07 Dec ? 18:03:49 10° W 18:08:19 48° S 18:10:26 28° SE visible
07 Dec ? 19:45:16 10° W 19:47:24 21° WSW 19:47:24 21° WSW visible
08 Dec ? 16:37:40 10° WSW 16:42:09 48° S 16:46:38 10° E visible
08 Dec ? 18:18:49 10° W 18:23:13 42° SSW 18:24:59 29° SE visible
08 Dec ? 20:00:36 10° W 20:01:58 15° WSW 20:01:58 15° WSW visible
09 Dec ? 16:52:34 10° WSW 16:57:05 50° S 17:01:36 10° ESE visible
09 Dec ? 18:33:53 10° W 18:38:06 34° SSW 18:39:37 27° SSE visible
09 Dec ? 20:16:30 10° WSW 20:16:36 10° WSW 20:16:36 10° WSW visible
10 Dec ? 17:07:32 10° W 17:12:01 46° S 17:16:29 10° ESE visible
10 Dec ? 18:49:03 10° W 18:52:53 25° SSW 18:54:23 21° S visible
11 Dec ? 17:22:33 10° W 17:26:54 39° SSW 17:31:16 10° SE visible
11 Dec ? 19:04:31 10° WSW 19:07:36 18° SW 19:09:17 15° S visible
12 Dec ? 17:37:38 10° W 17:41:44 31° SSW 17:45:50 10° SE visible
12 Dec ? 19:20:55 10° WSW 19:22:11 11° SW 19:23:28 10° SSW visible
